• In Russia
  • List of Countries
  • For 7 days
  • Water Temperature
  • Satellite Maps
  • Weather Map
  • Weather Widgets
  • user-avatar
    Login

    Hourly Weather Albertirsa

    Today, 17 August, Thursday

    Time Temperature Precipitation Wind Pressure Humidity
    00:00 +24°C° 0 mm 1 mps 752 mmHg 46%
    01:00 +23°C° 0 mm 1 mps 752 mmHg 50%
    02:00 +23°C° 0 mm 1 mps 752 mmHg 52%
    03:00 +22°C° 0 mm 1 mps 752 mmHg 53%
    04:00 +22°C° 0 mm 1 mps 752 mmHg 55%
    05:00 +23°C° 0 mm 2 mps 752 mmHg 52%
    06:00 +25°C° 0 mm 2 mps 752 mmHg 49%
    07:00 +26°C° 0 mm 2 mps 752 mmHg 45%
    08:00 +28°C° 0 mm 2 mps 752 mmHg 40%
    09:00 +30°C° 0 mm 2 mps 752 mmHg 35%
    10:00 +32°C° 0 mm 2 mps 752 mmHg 30%
    11:00 +34°C° 0 mm 2 mps 752 mmHg 28%
    12:00 +35°C° 0 mm 2 mps 752 mmHg 25%
    13:00 +36°C° 0 mm 2 mps 751 mmHg 23%
    14:00 +36°C° 0 mm 2 mps 751 mmHg 23%
    15:00 +36°C° 0 mm 2 mps 751 mmHg 22%
    16:00 +36°C° 0 mm 2 mps 750 mmHg 22%
    17:00 +34°C° 0 mm 2 mps 750 mmHg 24%
    18:00 +31°C° 0 mm 2 mps 750 mmHg 27%
    19:00 +30°C° 0 mm 2 mps 750 mmHg 29%
    20:00 +29°C° 0 mm 1 mps 751 mmHg 31%
    21:00 +28°C° 0 mm 1 mps 751 mmHg 32%
    22:00 +27°C° 0 mm 1 mps 751 mmHg 33%
    23:00 +26°C° 0 mm 1 mps 751 mmHg 36%

    Tomorrow, 18 August, Friday

    Time Temperature Precipitation Wind Pressure Humidity
    00:00 +25°C° 0 mm 1 mps 751 mmHg 38%
    01:00 +25°C° 0 mm 1 mps 751 mmHg 40%
    02:00 +24°C° 0 mm 1 mps 751 mmHg 42%
    03:00 +24°C° 0 mm 1 mps 751 mmHg 44%
    04:00 +23°C° 0 mm 1 mps 751 mmHg 46%
    05:00 +25°C° 0 mm 1 mps 751 mmHg 45%
    06:00 +26°C° 0 mm 1 mps 751 mmHg 43%
    07:00 +27°C° 0 mm 1 mps 752 mmHg 42%
    08:00 +29°C° 0 mm 1 mps 752 mmHg 37%
    09:00 +31°C° 0 mm 1 mps 752 mmHg 33%
    10:00 +33°C° 0 mm 1 mps 752 mmHg 29%
    11:00 +34°C° 0 mm 1 mps 751 mmHg 27%
    12:00 +35°C° 0 mm 1 mps 751 mmHg 24%
    13:00 +37°C° 0 mm 1 mps 751 mmHg 21%
    14:00 +36°C° 0 mm 1 mps 750 mmHg 21%
    15:00 +36°C° 0 mm 1 mps 750 mmHg 20%
    16:00 +36°C° 0 mm 1 mps 749 mmHg 20%
    17:00 +35°C° 0 mm 2 mps 749 mmHg 22%
    18:00 +34°C° 0 mm 2 mps 749 mmHg 25%
    19:00 +31°C° 0 mm 2 mps 749 mmHg 28%
    20:00 +30°C° 0 mm 3 mps 749 mmHg 30%
    21:00 +29°C° 0 mm 3 mps 749 mmHg 32%
    22:00 +28°C° 0 mm 3 mps 749 mmHg 34%
    23:00 +27°C° 0 mm 3 mps 749 mmHg 35%

    Day after tomorrow, 19 August, Saturday

    Time Temperature Precipitation Wind Pressure Humidity
    00:00 +27°C° 0 mm 2 mps 749 mmHg 37%
    01:00 +26°C° 0 mm 2 mps 748 mmHg 39%
    02:00 +25°C° 0 mm 2 mps 748 mmHg 41%
    03:00 +25°C° 0 mm 2 mps 748 mmHg 43%
    04:00 +24°C° 0 mm 1 mps 748 mmHg 45%
    05:00 +25°C° 0 mm 2 mps 748 mmHg 43%
    06:00 +26°C° 0 mm 2 mps 749 mmHg 41%
    07:00 +28°C° 0 mm 2 mps 749 mmHg 39%
    08:00 +29°C° 0 mm 2 mps 749 mmHg 36%
    09:00 +31°C° 0 mm 2 mps 749 mmHg 32%
    10:00 +34°C° 0 mm 2 mps 749 mmHg 28%
    11:00 +35°C° 0 mm 2 mps 749 mmHg 27%
    12:00 +36°C° 0 mm 3 mps 748 mmHg 25%
    13:00 +37°C° 0 mm 3 mps 748 mmHg 23%
    14:00 +36°C° 0 mm 4 mps 748 mmHg 27%
    15:00 +34°C° 0 mm 4 mps 748 mmHg 31%
    16:00 +33°C° 0 mm 5 mps 747 mmHg 35%
    17:00 +30°C° 0.1 mm 6 mps 748 mmHg 43%
    18:00 +27°C° 0.1 mm 6 mps 748 mmHg 51%
    19:00 +24°C° 0.1 mm 7 mps 748 mmHg 59%
    20:00 +23°C° 0.4 mm 6 mps 748 mmHg 63%
    21:00 +22°C° 0.4 mm 6 mps 749 mmHg 67%
    22:00 +22°C° 0.4 mm 5 mps 749 mmHg 71%
    23:00 +21°C° 0.8 mm 5 mps 749 mmHg 74%

    20 August, Sunday

    Time Temperature Precipitation Wind Pressure Humidity
    00:00 +21°C° 0.8 mm 5 mps 749 mmHg 77%
    01:00 +20°C° 0.8 mm 5 mps 749 mmHg 80%
    02:00 +20°C° 1 mm 4 mps 749 mmHg 82%
    03:00 +20°C° 1 mm 4 mps 749 mmHg 84%
    04:00 +19°C° 1 mm 4 mps 749 mmHg 86%
    05:00 +19°C° 1.3 mm 3 mps 750 mmHg 85%
    06:00 +19°C° 1.3 mm 3 mps 750 mmHg 85%
    07:00 +19°C° 1.3 mm 3 mps 750 mmHg 85%
    08:00 +19°C° 1 mm 3 mps 750 mmHg 83%
    09:00 +19°C° 1 mm 4 mps 751 mmHg 81%
    10:00 +20°C° 1 mm 4 mps 751 mmHg 79%
    11:00 +20°C° 0.2 mm 4 mps 751 mmHg 75%
    12:00 +20°C° 0.2 mm 5 mps 751 mmHg 72%
    13:00 +21°C° 0.2 mm 5 mps 751 mmHg 68%
    14:00 +21°C° 0 mm 5 mps 751 mmHg 65%
    15:00 +22°C° 0 mm 5 mps 751 mmHg 61%
    16:00 +22°C° 0 mm 4 mps 751 mmHg 57%
    17:00 +21°C° 0 mm 3 mps 751 mmHg 60%
    18:00 +20°C° 0 mm 3 mps 751 mmHg 64%
    19:00 +19°C° 0 mm 2 mps 752 mmHg 67%
    20:00 +19°C° 0 mm 1 mps 752 mmHg 69%
    21:00 +19°C° 0 mm 1 mps 752 mmHg 72%
    22:00 +18°C° 0 mm 1 mps 752 mmHg 74%
    23:00 +18°C° 0 mm 1 mps 752 mmHg 75%

    21 August, Monday

    Time Temperature Precipitation Wind Pressure Humidity
    00:00 +16°C° 0 mm 2 mps 752 mmHg 75%
    01:00 +16°C° 0 mm 2 mps 753 mmHg 76%
    02:00 +16°C° 0 mm 2 mps 753 mmHg 76%
    03:00 +16°C° 0 mm 2 mps 752 mmHg 76%
    04:00 +15°C° 0 mm 2 mps 752 mmHg 76%
    05:00 +16°C° 0 mm 3 mps 753 mmHg 71%
    06:00 +17°C° 0 mm 3 mps 753 mmHg 67%
    07:00 +18°C° 0 mm 3 mps 753 mmHg 62%
    08:00 +20°C° 0 mm 3 mps 753 mmHg 56%
    09:00 +21°C° 0 mm 3 mps 753 mmHg 49%
    10:00 +24°C° 0 mm 3 mps 753 mmHg 42%
    11:00 +25°C° 0 mm 3 mps 752 mmHg 39%
    12:00 +26°C° 0 mm 3 mps 752 mmHg 36%
    13:00 +27°C° 0 mm 3 mps 752 mmHg 33%
    14:00 +27°C° 0 mm 4 mps 751 mmHg 33%
    15:00 +27°C° 0 mm 4 mps 751 mmHg 33%
    16:00 +27°C° 0 mm 4 mps 751 mmHg 32%
    17:00 +25°C° 0 mm 3 mps 751 mmHg 36%
    18:00 +24°C° 0 mm 3 mps 752 mmHg 40%
    19:00 +21°C° 0 mm 2 mps 752 mmHg 44%
    20:00 +20°C° 0 mm 2 mps 752 mmHg 47%
    21:00 +20°C° 0 mm 2 mps 752 mmHg 50%
    22:00 +19°C° 0 mm 2 mps 752 mmHg 54%
    23:00 +18°C° 0 mm 2 mps 752 mmHg 56%

    22 August, Tuesday

    Time Temperature Precipitation Wind Pressure Humidity
    00:00 +18°C° 0 mm 2 mps 752 mmHg 59%
    01:00 +17°C° 0 mm 2 mps 752 mmHg 61%
    02:00 +18°C° 0 mm 1 mps 752 mmHg 63%
    03:00 +16°C° 0 mm 1 mps 752 mmHg 65%
    04:00 +16°C° 0 mm 1 mps 752 mmHg 67%
    05:00 +18°C° 0 mm 1 mps 752 mmHg 63%
    06:00 +19°C° 0 mm 1 mps 752 mmHg 60%
    07:00 +20°C° 0 mm 1 mps 752 mmHg 56%
    08:00 +22°C° 0 mm 1 mps 752 mmHg 50%
    09:00 +24°C° 0 mm 1 mps 752 mmHg 44%
    10:00 +25°C° 0 mm 2 mps 752 mmHg 38%
    11:00 +26°C° 0 mm 2 mps 751 mmHg 35%
    12:00 +27°C° 0 mm 2 mps 751 mmHg 32%
    13:00 +28°C° 0 mm 2 mps 750 mmHg 29%
    14:00 +29°C° 0 mm 2 mps 750 mmHg 29%
    15:00 +29°C° 0 mm 2 mps 749 mmHg 29%
    16:00 +30°C° 0 mm 2 mps 749 mmHg 29%
    17:00 +28°C° 0 mm 2 mps 749 mmHg 32%
    18:00 +26°C° 0 mm 2 mps 749 mmHg 36%
    19:00 +25°C° 0 mm 2 mps 748 mmHg 39%
    20:00 +24°C° 0 mm 2 mps 748 mmHg 41%
    21:00 +23°C° 0 mm 2 mps 748 mmHg 42%
    22:00 +23°C° 0 mm 2 mps 748 mmHg 44%
    23:00 +21°C° 0 mm 2 mps 748 mmHg 45%
    Show more